Location: Unspecified
(0.0000°N, 0.0000°E)
Time: 03:25:43
(UTC+00:00)

Hubble Space Telescope - Pass Details

Date: 02 February 2023
Orbit: 529 x 532 km, 28.5° (Epoch: 27 January)

Event Time Altitude Azimuth Distance (km) Brightness Sun altitude
Rises 20:17:33 0° 237° (WSW) 2,652 5.4 -29.5°
Reaches altitude 10° 20:19:48 10° 236° (SW) 1,762 4.2 -30.1°
Enters shadow 20:21:34 25° 232° (SW) 1,096 2.9 -30.5°
